Location: München
(48.1351°N, 11.5820°E)
Time: 03:59:55
(UTC+02:00)

ISS - Pass Details

Date: 25 May 2021
Orbit: 417 x 422 km, 51.6° (Epoch: 13 June)

Event Time Altitude Azimuth Distance (km) Brightness Sun altitude
Rises 00:35:57 0° 290° (WNW) 2,368 0.4 -20.5°
Reaches altitude 10° 00:38:12 10° 279° (W) 1,502 -0.8 -20.5°
Enters shadow 00:39:25 18° 265° (W) 1,097 -1.6 -20.6°
